Regional Weather Roundup
Issued by NWS

Home | Current Version | Previous Version | Text Only | Print | Product List | Glossary On
Versions: 1 2 3 4 5 6 7 8 9 10 11 12 13 14 15 16 17 18 19 20 21 22 23 24 25 26 27 28 29 30 31 32 33 34 35 36 37 38 39 40 41 42 43 44 45 46 47 48 49 50
959
ASUS44 KLIX 220410
RWRLA
LOUISIANA WEATHER ROUNDUP
NATIONAL WEATHER SERVICE NEW ORLEANS LA
1000 PM CST SUN DEC 21 2014

NOTE: "FAIR" INDICATES FEW OR NO CLOUDS BELOW 12,000 FEET WITH NO
      SIGNIFICANT WEATHER AND/OR OBSTRUCTIONS TO VISIBILITY.
      SKY/WX - SKY CONDITION AND SIGNIFICANT WEATHER.
      TMP - AIR TEMPERATURE.    DP   - DEWPOINT TEMPERATURE.
      RH  - RELATIVE HUMIDITY.  PRES - PRESSURE.
      HX  - HEAT INDEX.         WCI  - WIND CHILL INDEX.

*  THESE STATIONS ARE NOT NWS OR FAA STATIONS AND ARE NOT UNDER
   NWS QUALITY CONTROL.

LAZ040-048-061>063-065-066-069-220500-
SOUTHEAST LOUISIANA

CITY           SKY/WX    TMP DP  RH WIND       PRES   REMARKS
N.O. AUDUBON     N/A     56  56 100 MISG        N/A
N.O. INTL ARPT CLOUDY    56  52  86 E5        29.97F FOG
N.O. LAKEFRONT CLOUDY    58  54  86 E9        29.98S
N.O. DOWNTOWN* CLOUDY    55  52  88 NE6       29.98S
SLIDELL        CLOUDY    55  52  89 CALM      29.98S
BATON ROUGE    MOCLDY    51  48  89 E7        29.96F
BOOTHVILLE     CLOUDY    57  57 100 E6        29.96F FOG
BELLE CHASSE   CLOUDY    57  55  93 E3        29.97F FOG
BOGALUSA*        N/A     55  51  85 CALM      30.01S
GALLIANO*      CLOUDY    57  56  96 MISG      29.96F FOG
NEW ROADS*     CLOUDY    51  50  97 CALM      29.95F
GONZALES*      CLOUDY    52  52 100 CALM      29.96F FOG
HAMMOND*       NOT AVBL
HOUMA*         CLOUDY    55  54  97 E7        29.95F FOG
PORT FOURCHON* CLOUDY    61  59  94 NE7       29.99S FOG

$$

LAZ041-044-053-054-220500-
SOUTHWEST LOUISIANA

CITY           SKY/WX    TMP DP  RH WIND       PRES   REMARKS
LAKE CHARLES   CLOUDY    51  50  96 E7        29.94F
LAFAYETTE      CLOUDY    51  49  92 CALM      29.96S FOG
PATTERSON      CLOUDY    52  50  93 E5        29.96F
SALT POINT       N/A     56  52  86 CALM      29.94F
NEW IBERIA     CLOUDY    51  49  92 NE5       29.96S FOG
CHENAULT AIRPK CLOUDY    50  50  99 E5        29.94F FOG

$$

LAZ027-028-220500-
CENTRAL LOUISIANA

CITY           SKY/WX    TMP DP  RH WIND       PRES   REMARKS
FORT POLK      CLOUDY    48  48 100 S6        29.93S FOG
ALEXANDRIA INT CLOUDY    49  48  97 SE8       29.92F FOG
ALEXANDRIA     CLOUDY    48  48 100 S3        29.93F

$$

LAZ001-002-220500-
NORTHWEST LOUISIANA

CITY           SKY/WX    TMP DP  RH WIND       PRES   REMARKS
SHREVEPORT     PTCLDY    48  45  89 S6        29.88F
BARKSDALE AFB  NOT AVBL
DTN SHREVEPORT CLEAR     49  44  83 SW8       29.89F

$$

LAZ014-016-220500-
NORTHEAST LOUISIANA

CITY           SKY/WX    TMP DP  RH WIND       PRES   REMARKS
MONROE         CLEAR     45  44  97 S3        29.94R
TALLULAH       CLOUDY    51  47  86 SE9       29.96F

$$




USA.gov is the U.S. government's official web portal to all federal, state and local government web resources and services.